Olivia, MN

1:01 PM CDT on August 26, 2016 (GMT -0500)
Olivia Regional

Weather History for KOVL - April, 2013

Change the Weather History Date:

Monday, April 22, 2013

  Actual Average (KRWF) Record (KRWF)
Temperature  
Mean Temperature 36 °F -  
Max Temperature 39 °F 59 °F 88 °F (1960)
Min Temperature 30 °F 39 °F 23 °F (1936)
Degree Days  
Heating Degree Days 30    
Moisture  
Dew Point 31 °F    
Average Humidity 89    
Maximum Humidity 100    
Minimum Humidity 75    
Precipitation  
Precipitation 0.00 in - - ()
Sea Level Pressure  
Sea Level Pressure 30.19 in    
Wind  
Wind Speed 11 mph (North)    
Max Wind Speed 22 mph    
Max Gust Speed 31 mph    
Visibility 7 miles    
Events Snow    
Averages and records for this station are not official NWS values.
T = Trace of Precipitation, MM = Missing Value Source: NWS Daily Summary

Daily Weather History Graph

Daily Weather History Graph

Search for Another Location

Airport or City:

Trip Planner

Search our weather history database for the weather conditions in past years. The results will help you decide how hot, cold, wet, or windy it might be!

Date:

Astronomy

Apr. 22, 2013 Rise Set
Actual Time 6:23 AM CDT 8:14 PM CDT
Civil Twilight 5:52 AM CDT 8:45 PM CDT
Nautical Twilight 5:14 AM CDT 9:24 PM CDT
Astronomical Twilight 4:32 AM CDT 10:05 PM CDT
Moon 4:57 PM CDT (4/22) 4:27 AM CDT (4/22)
Length of Visible Light 14h 53m
Length of Day
13h 50m
Waxing Gibbous, 88% of the Moon is Illuminated
Apr 22
Waxing Gibbous
Apr 25
Full
May 2
Last Quarter
May 9
New
May 17
First Quarter

Hourly Weather History & Observations

Time (CDT) Temp. Windchill Dew Point Humidity Pressure Visibility Wind Dir Wind Speed Gust Speed Precip Events Conditions
12:13 AM 35.6 °F 26.2 °F 32.0 °F 87% 30.15 in 10.0 mi NNW 15.0 mph - N/A   Overcast
12:34 AM 35.6 °F 27.5 °F 32.0 °F 87% 30.15 in 10.0 mi NNW 11.5 mph 19.6 mph N/A   Overcast
12:53 AM 35.6 °F 28.6 °F 32.0 °F 87% 30.15 in 10.0 mi North 9.2 mph - N/A   Overcast
1:14 AM 35.6 °F 28.0 °F 32.0 °F 87% 30.17 in 10.0 mi NNW 10.4 mph - N/A   Overcast
1:34 AM 35.6 °F 29.2 °F 32.0 °F 87% 30.17 in 10.0 mi NNW 8.1 mph - N/A   Overcast
1:54 AM 35.6 °F 29.2 °F 32.0 °F 87% 30.17 in 10.0 mi NNW 8.1 mph - N/A   Overcast
2:14 AM 35.6 °F 29.9 °F 32.0 °F 87% 30.18 in 10.0 mi NW 6.9 mph - N/A   Overcast
2:34 AM 33.8 °F 28.6 °F 32.0 °F 93% 30.18 in 10.0 mi NNW 5.8 mph - N/A   Overcast
2:54 AM 33.8 °F 29.6 °F 32.0 °F 93% 30.18 in 10.0 mi NW 4.6 mph - N/A   Overcast
3:14 AM 33.8 °F 26.4 °F 32.0 °F 93% 30.17 in 10.0 mi NNW 9.2 mph - N/A   Overcast
3:34 AM 33.8 °F - 32.0 °F 93% 30.18 in 10.0 mi Calm Calm - N/A   Overcast
3:54 AM 33.8 °F - 32.0 °F 93% 30.18 in 10.0 mi Calm Calm - N/A   Overcast
4:14 AM 33.8 °F - 32.0 °F 93% 30.18 in 10.0 mi Calm Calm - N/A   Overcast
4:34 AM 33.8 °F 29.6 °F 32.0 °F 93% 30.18 in 10.0 mi North 4.6 mph - N/A   Overcast
4:54 AM 33.8 °F 27.0 °F 32.0 °F 93% 30.18 in 10.0 mi North 8.1 mph - N/A   Overcast
5:14 AM 33.8 °F - 32.0 °F 93% 30.18 in 10.0 mi Calm Calm - N/A   Overcast
5:34 AM 33.8 °F 29.6 °F 30.2 °F 87% 30.19 in 10.0 mi North 4.6 mph - N/A   Overcast
5:54 AM 33.8 °F - 30.2 °F 87% 30.20 in 10.0 mi Calm Calm - N/A   Overcast
6:14 AM 33.8 °F 27.7 °F 30.2 °F 87% 30.19 in 10.0 mi North 6.9 mph - N/A   Overcast
6:34 AM 33.8 °F 27.7 °F 30.2 °F 87% 30.19 in 10.0 mi North 6.9 mph - N/A   Mostly Cloudy
6:54 AM 33.8 °F 26.4 °F 32.0 °F 93% 30.18 in 10.0 mi North 9.2 mph - N/A   Mostly Cloudy
7:14 AM 33.8 °F 26.4 °F 32.0 °F 93% 30.18 in 10.0 mi NNE 9.2 mph - N/A   Mostly Cloudy
7:33 AM 33.8 °F 26.4 °F 30.2 °F 87% 30.17 in 10.0 mi NNE 9.2 mph - N/A   Clear
7:54 AM 33.8 °F 27.0 °F 32.0 °F 93% 30.18 in 10.0 mi NNE 8.1 mph - N/A   Clear
8:14 AM 33.8 °F 25.8 °F 30.2 °F 87% 30.18 in 10.0 mi NNE 10.4 mph - N/A   Clear
8:34 AM 33.8 °F 24.8 °F 30.2 °F 87% 30.19 in 10.0 mi NNE 12.7 mph - N/A   Scattered Clouds
8:53 AM 35.6 °F 26.6 °F 30.2 °F 81% 30.19 in 10.0 mi NNE 13.8 mph - N/A   Mostly Cloudy
9:14 AM 33.8 °F 25.3 °F 30.2 °F 87% 30.19 in 10.0 mi NNE 11.5 mph - N/A   Mostly Cloudy
9:34 AM 35.6 °F 27.1 °F 30.2 °F 81% 30.20 in 10.0 mi NNE 12.7 mph - N/A   Overcast
9:54 AM 35.6 °F 28.0 °F 32.0 °F 87% 30.21 in 10.0 mi NNE 10.4 mph - N/A   Overcast
10:14 AM 35.6 °F 28.6 °F 30.2 °F 81% 30.24 in 10.0 mi North 9.2 mph - N/A   Overcast
10:33 AM 35.6 °F 26.6 °F 30.2 °F 81% 30.23 in 10.0 mi North 13.8 mph - N/A   Overcast
10:54 AM 35.6 °F 25.9 °F 30.2 °F 81% 30.20 in 10.0 mi NNE 16.1 mph - N/A   Overcast
11:14 AM 37.4 °F 27.2 °F 30.2 °F 75% 30.19 in 10.0 mi North 19.6 mph 25.3 mph N/A   Overcast
11:34 AM 37.4 °F 28.2 °F 30.2 °F 75% 30.19 in 10.0 mi NNE 16.1 mph 24.2 mph N/A   Overcast
11:54 AM 39.2 °F 29.0 °F 32.0 °F 75% 30.15 in 10.0 mi North 21.9 mph 31.1 mph N/A   Overcast
12:13 PM 35.6 °F 24.5 °F 30.2 °F 81% 30.15 in 10.0 mi NNE 20.7 mph 29.9 mph N/A   Overcast
12:33 PM 35.6 °F 25.2 °F 30.2 °F 81% 30.18 in 10.0 mi NNE 18.4 mph 23.0 mph N/A   Overcast
12:53 PM 35.6 °F 26.2 °F 30.2 °F 81% 30.18 in 10.0 mi NNE 15.0 mph 19.6 mph N/A   Overcast
1:14 PM 37.4 °F 29.3 °F 30.2 °F 75% 30.20 in 10.0 mi NNE 12.7 mph - N/A   Overcast
1:33 PM 35.6 °F 25.9 °F 30.2 °F 81% 30.19 in 10.0 mi NNE 16.1 mph - N/A   Overcast
1:54 PM 35.6 °F 25.5 °F 30.2 °F 81% 30.18 in 10.0 mi North 17.3 mph - N/A   Overcast
2:14 PM 35.6 °F 25.2 °F 30.2 °F 81% 30.18 in 10.0 mi North 18.4 mph 25.3 mph N/A   Overcast
2:34 PM 33.8 °F 21.9 °F 30.2 °F 87% 30.17 in 2.5 mi North 21.9 mph 26.5 mph N/A Snow Light Snow
2:54 PM 33.8 °F 22.2 °F 32.0 °F 93% 30.17 in 1.2 mi North 20.7 mph 28.8 mph N/A Snow Light Snow
3:14 PM 33.8 °F 21.9 °F 32.0 °F 93% 30.17 in 4.0 mi North 21.9 mph 28.8 mph N/A Snow Light Snow
3:33 PM 33.8 °F 22.2 °F 32.0 °F 93% 30.17 in 4.0 mi North 20.7 mph 26.5 mph N/A Snow Light Snow
3:54 PM 33.8 °F 22.8 °F 32.0 °F 93% 30.16 in 1.2 mi North 18.4 mph - N/A Snow Light Snow
4:14 PM 32.0 °F 20.1 °F 32.0 °F 100% 30.16 in 1.0 mi North 19.6 mph - N/A Snow Light Snow
4:34 PM 32.0 °F 21.6 °F 32.0 °F 100% 30.16 in 1.2 mi North 15.0 mph - N/A Snow Light Snow
4:53 PM 32.0 °F 21.2 °F 30.2 °F 93% 30.17 in 1.0 mi North 16.1 mph 20.7 mph N/A Snow Light Snow
5:14 PM 32.0 °F 23.6 °F 30.2 °F 93% 30.17 in 0.5 mi North 10.4 mph - N/A Snow Snow
5:34 PM 32.0 °F 23.0 °F 30.2 °F 93% 30.17 in 0.5 mi North 11.5 mph - N/A Snow Snow
5:54 PM 32.0 °F 22.5 °F 30.2 °F 93% 30.17 in 0.5 mi North 12.7 mph - N/A Snow Light Snow
6:14 PM 32.0 °F 20.8 °F 30.2 °F 93% 30.18 in 1.2 mi North 17.3 mph 26.5 mph N/A Snow Light Snow
6:34 PM 32.0 °F 21.6 °F 30.2 °F 93% 30.18 in 1.8 mi North 15.0 mph 18.4 mph N/A Snow Light Snow
6:54 PM 32.0 °F 21.6 °F 30.2 °F 93% 30.19 in 1.2 mi North 15.0 mph 21.9 mph N/A Snow Light Snow
7:14 PM 32.0 °F 23.6 °F 30.2 °F 93% 30.19 in 1.2 mi North 10.4 mph - N/A Snow Light Snow
7:34 PM 32.0 °F 23.0 °F 30.2 °F 93% 30.19 in 0.8 mi North 11.5 mph 16.1 mph N/A Snow Light Snow
7:54 PM 32.0 °F 22.5 °F 30.2 °F 93% 30.19 in 0.8 mi NNW 12.7 mph - N/A Snow Light Snow
8:14 PM 32.0 °F 21.6 °F 30.2 °F 93% 30.18 in 1.5 mi North 15.0 mph 19.6 mph N/A Snow Light Snow
8:34 PM 32.0 °F 20.5 °F 30.2 °F 93% 30.18 in 2.0 mi NNW 18.4 mph - N/A Snow Light Snow
8:54 PM 32.0 °F 21.2 °F 30.2 °F 93% 30.20 in 3.0 mi North 16.1 mph - N/A Snow Light Snow
9:14 PM 32.0 °F 22.1 °F 30.2 °F 93% 30.21 in 4.0 mi North 13.8 mph 19.6 mph N/A Snow Light Snow
9:34 PM 32.0 °F 21.6 °F 30.2 °F 93% 30.22 in 5.0 mi NNW 15.0 mph 23.0 mph N/A Snow Light Snow
9:54 PM 32.0 °F 21.2 °F 30.2 °F 93% 30.23 in 5.0 mi NNW 16.1 mph - N/A Snow Light Snow
10:14 PM 32.0 °F 20.8 °F 30.2 °F 93% 30.22 in 7.0 mi NNW 17.3 mph - N/A Snow Light Snow
10:34 PM 32.0 °F 20.8 °F 28.4 °F 87% 30.22 in 7.0 mi NNW 17.3 mph - N/A Snow Light Snow
10:54 PM 32.0 °F 21.6 °F 28.4 °F 87% 30.21 in 7.0 mi NNW 15.0 mph - N/A Snow Light Snow
11:14 PM 32.0 °F 23.0 °F 28.4 °F 87% 30.21 in 10.0 mi NNW 11.5 mph - N/A Snow Light Snow
11:34 PM 32.0 °F 22.1 °F 28.4 °F 87% 30.22 in 10.0 mi NW 13.8 mph - N/A   Clear
11:54 PM 30.2 °F 20.2 °F 26.6 °F 86% 30.22 in 10.0 mi NW 12.7 mph - N/A   Mostly Cloudy